Showing default

HULIANWANG DIGUI-131, 67239

Orbit data source: Space-Track

HULIANWANG DIGUI-131, 67239 is a payload satellite owned by Zhongguo Xingwang (CN) in LEO that was launched on Thu, 25 Dec 2025 UTC via a CHANG ZHENG 8A launch vehicle from the Wenchang Satellite Launch Center (WSC). Payload-class satellites include a variety of spacecraft equipped with specific instruments for various scientific and technological missions. These include communications satellites like Starlink; space stations such as the ISS; scientific satellites like the Hubble; Earth observation satellites from companies like Planet Labs, Umbra, and HawkEye 360; GPS; miniature CubeSats for education and research; and military/defense satellites.

Loading next visibility...
Identifier
67239, 2025-311D
Orbit
LEO
Country
Flag of CNCN / PRC
Related business
Manufacturer
CAST
Mission
Operational Civil Communications
Bus & Motor
XINGWANG C, Unknown motor
Mass
~700 kg wet, ~700 kg dry
Launch date (UTC)
2025-12-25 (6 months ago)
Launch vehicle
CHANG ZHENG 8A
Launch site
Wenchang Satellite Launch Center (WSC)
Object type
Payload
Rocket body
Debris
Shape & HBR
Box + 2 Pan, 14.5 m
Radar Cross Section
5.935 m², Large (>1 m²)

Expand to show TLE details & history
Last TLE update: 21 hours ago

TLE from 21 hours ago
0 HULIANWANG DIGUI-131
1 67239U 25311D   26163.21661822 -.00000147  00000-0 -48632-4 0  9996
2 67239  50.0043 133.9037 0001085 313.3742  46.7040 13.29321419 22677
Epoch: 2026-06-12T05:11Z
TLE epoch observation values (Epoch: 2026-06-12T05:11:55.814Z)
Latitude
0.00002°
Longitude
155.37192°
Altitude
1,149.27 km
Speed
7.28 km/s
True Right ascension
08h 55m 36s
True Declination
0° 00' 00"
Sunlit
Object was in daylight at epoch
Visualization orbit readout
Latitude
Unknown
Longitude
Unknown
Altitude
Unknown
Speed
Unknown
Apparent Right ascension
Unknown
Apparent Declination
Unknown
Sunlit
N/A
Visualization observer readout
Local Sidereal Time
12:43:30
Azimuth
Unknown
Elevation
Unknown
Doppler factor
Unknown
Orbital elements
Apogee altitude
1,150.845 km
Perigee altitude
1,149.212 km
Semi-major axis
7,528.166 km
Eccentricity
0.00011
Inclination
50.0043°
RAAN
133.9037°
Arg. of periapsis
313.3742°
True anomaly
46.71305°
Mean anomaly
46.704°
Eccentric anomaly
46.70852°
Mean motion
3.32284 °/min
Orbital period
108.34 mins
BSTAR
-0.000048632
Loading maneuver chart data...
Computing Atmospheric mass density...
Loading historical data...
Loading historical data...
Loading historical data...
Loading historical data...
Loading historical data...
Loading historical data...
Loading historical data...

Documentation

Showing up to 5 results
|